Location: Johnson City
(36.3130°N, 82.3540°W)
Time: 18:46:32
(UTC-05:00)

Hubble Space Telescope - Pass Details

Date: 04 December 2021
Orbit: 535 x 538 km, 28.5° (Epoch: 23 January)

Event Time Altitude Azimuth Distance (km) Brightness Sun altitude
Exits shadow 04:53:51 13° 157° (SSE) 1,609 3.5 -29.8°
Drops below altitude 10° 04:54:29 10° 150° (SSE) 1,769 3.8 -29.7°
Sets 04:57:15 0° 131° (SE) 2,658 5.1 -29.1°
